Location: Bonnevaux
(44.3683°N, 4.0308°E)
Time: 01:03:05
(UTC+00:00)

Daily predictions for brighter satellites

Satellite Brightness Start Highest point End
(mag) Time Altitude Azimuth Time Altitude Azimuth Time Altitude Azimuth
ADEOS II 4.5 02:16:22 10° N 02:17:29 17° N 02:17:29 17° N
USA 234 4.1 02:19:34 10° ESE 02:24:09 45° E 02:24:09 45° E
Lacrosse 5 3.9 02:40:09 24° ENE 02:40:09 24° ENE 02:42:30 10° E
Cosmos 2082 Rocket 4.3 02:42:36 18° N 02:42:36 18° N 02:44:28 10° N
Cosmos 2333 Rocket 4.2 02:40:12 10° N 02:44:57 25° NE 02:49:39 10° ESE
Cosmos 2219 Rocket 4.1 02:55:12 10° N 02:59:59 27° NE 03:04:45 10° ESE
CZ-2C R/B 3.8 02:58:15 10° NNE 03:02:02 32° E 03:02:02 32° E
USA 238 DEB 4.2 03:06:59 10° NNW 03:14:09 62° NE 03:21:38 10° SE
USA 238 4.2 03:07:05 10° NNW 03:14:15 62° NE 03:21:44 10° SE
COSMOS 2428 4.5 03:11:23 10° N 03:16:24 30° NE 03:21:24 10° ESE
ATLAS 5 CENTAUR R/B 3.8 03:19:17 16° ESE 03:19:39 16° ESE 03:22:12 10° ENE
S3M 3.8 03:21:13 87° ESE 03:21:14 87° E 03:27:28 10° N
ARIANE 5 R/B 3.7 03:20:34 10° N 03:23:22 32° N 03:23:22 32° N
Cosmos 1745 Rocket 3.8 03:19:58 10° N 03:26:19 83° W 03:26:32 81° SW
USA 267 3.6 03:28:38 10° NE 03:34:53 50° NNW 03:35:57 46° NW
Cosmos 2322 4.2 03:31:39 10° NNW 03:37:17 60° ENE 03:42:52 10° SE
Cosmos 1709 Rocket 4.2 03:31:41 10° N 03:38:05 72° E 03:44:26 10° SSE
H-2A R/B 4.0 03:37:58 10° SE 03:41:34 28° ENE 03:45:08 10° N
NOSS 3-2 (A) 4.0 03:35:21 10° NW 03:42:59 83° SW 03:51:35 10° SSE
Spot 4 Rocket 4.4 03:42:12 10° N 03:46:28 51° NW 03:46:28 51° NW
COSMOS 2487 4.2 03:50:12 28° NNE 03:50:12 28° NNE 03:51:56 10° NNE
Cosmos 2344 3.5 03:46:42 50° WSW 03:48:48 72° NW 03:56:45 10° NE
Cosmos 1833 4.0 03:48:29 68° W 03:48:50 70° WNW 03:54:28 10° NNE
CENTAUR R/B 3.2 03:45:52 10° NW 03:54:04 84° NE 04:03:01 10° SE
Cosmos 2251 Rocket 3.4 03:53:53 61° SSW 03:54:51 84° WNW 04:00:16 10° NNE
Cosmos 614 Rocket 4.2 03:54:14 34° S 03:56:26 69° ESE 04:01:39 10° NNE
OAO 3 Rocket 4.5 04:00:08 27° S 04:00:08 27° S 04:04:06 10° ESE
ISS -2.4 04:00:41 36° NNE 04:00:41 36° NNE 04:03:42 10° E
Cosmos 2360 Rocket 3.8 04:04:24 19° S 04:04:24 19° S 04:05:59 10° S
Cosmos 1933 4.3 03:58:06 18° SSE 04:00:49 47° E 04:04:43 10° NNE
H-2A R/B 4.4 03:52:49 30° WSW 04:01:26 44° SSW 04:07:44 10° ESE
IDEFIX/ARIANE 42P 4.3 03:58:18 10° NNW 04:00:31 19° NW 04:00:31 19° NW
Meteor 2-17 Rocket 4.3 03:57:22 10° N 04:03:27 87° W 04:09:31 10° S
ALOS 2.5 03:59:09 10° NNE 04:03:50 69° ESE 04:07:02 20° S
PAYLOAD A 4.1 03:58:47 10° N 04:04:02 60° WNW 04:05:03 51° WSW
CZ-2C R/B 4.3 04:02:23 10° N 04:04:14 24° NNW 04:04:14 24° NNW
Cosmos 2237 Rocket 4.1 04:02:51 10° N 04:07:47 29° NE 04:12:40 10° ESE
Cosmos 2333 4.1 04:02:36 10° NNW 04:08:23 72° WSW 04:14:08 10° SSE
USA 234 3.4 04:02:46 10° SSE 04:09:02 49° SW 04:11:34 34° W
Cosmos 407 Rocket 4.2 04:06:32 10° S 04:11:32 52° ESE 04:16:32 10° NNE
CZ-4C R/B 2.2 04:10:13 32° SSW 04:12:30 70° ESE 04:18:16 10° NE
Cosmos 883 Rocket 4.4 04:11:11 31° SW 04:14:03 59° W 04:20:07 10° N
USA 276 2.8 04:16:02 47° N 04:16:02 47° N 04:18:48 10° ENE
PSLV R/B 3.5 04:12:07 10° N 04:16:27 62° WNW 04:17:21 49° SW
NOSS 3-4 (A) 3.5 04:16:30 21° SSW 04:20:31 71° ESE 04:26:44 10° NE
NOSS 3-4 (C) 3.5 04:16:34 20° SSW 04:20:37 71° ESE 04:26:50 10° NE
Lacrosse 5 1.9 04:19:25 39° WNW 04:21:02 57° SW 04:25:59 10° SSE
Cosmos 192 4.4 04:19:15 10° NNW 04:24:14 79° ENE 04:29:11 10° SSE
NOSS 3-2 (C) 4.0 04:17:23 10° NW 04:25:01 75° WSW 04:33:37 10° SSE
GPS 2-04 Rocket1 4.2 04:26:32 21° S 04:26:45 21° S 04:29:39 10° SE
Cosmos 2333 Rocket 2.2 04:23:57 10° NNW 04:29:38 60° WSW 04:35:17 10° S
Cosmos 1437 Rocket 3.3 04:29:22 10° S 04:33:24 63° E 04:37:22 10° NNE
Cosmos 1484 Rocket 2.5 04:29:42 10° N 04:33:24 67° WNW 04:35:27 25° SSW
Cosmos 1805 Rocket 3.9 04:29:57 10° NNW 04:34:10 41° W 04:38:19 10° SSW
ATLAS 2AS CENTAUR R/B 3.4 04:27:54 10° SSW 04:35:42 66° ESE 04:43:27 10° NE
Landsat 5 3.5 04:32:09 10° S 04:35:48 43° W 04:39:33 10° NNW
SJ-6F 4.4 04:32:48 10° N 04:36:57 64° WNW 04:40:19 15° SSW
Cosmos 2315 Rocket 4.2 04:34:41 15° SW 04:39:31 46° WNW 04:45:28 10° N
CZ-4B R/B 2.8 04:37:09 10° SE 04:40:02 36° ENE 04:42:53 10° N
CZ-2C R/B 3.2 04:36:37 10° N 04:40:38 28° WNW 04:41:25 27° W
COSMO-SKYMED 1 3.2 04:36:42 10° SSE 04:40:57 59° ENE 04:45:13 10° N
Cosmos 2297 Rocket 3.7 04:36:03 10° S 04:41:12 38° ESE 04:46:23 10° NE
Cosmos 1782 2.9 04:39:25 10° S 04:43:20 75° E 04:47:18 10° NNE
Cosmos 2219 Rocket 2.3 04:38:44 10° NW 04:44:14 53° WSW 04:49:44 10° S
Cosmos 1606 4.1 04:47:57 21° WNW 04:47:57 21° WNW 04:50:32 10° NNW
CBERS 1 LM4 rocket 4.3 04:43:47 10° N 04:48:30 58° WNW 04:53:07 10° SSW
Cosmos 1140 Rocket 3.4 04:43:41 10° SSW 04:48:54 86° WNW 04:54:07 10° NNE
Sich 1 3.6 04:46:44 10° NNW 04:50:47 35° W 04:54:45 10° SSW
Meteor 1-26 Rocket 4.3 04:46:18 10° S 04:52:02 85° W 04:57:59 10° N
Cosmos 1980 4.2 04:47:20 10° NNW 04:52:59 64° ENE 04:58:36 10° SE
Cosmos 1500 4.2 04:49:25 10° N 04:53:08 50° E 04:56:50 10° SSE
METEOR-M 4.2 04:49:17 10° N 04:54:30 57° WNW 04:59:42 10° SSW
Cosmos 1666 Rocket 3.7 04:53:46 10° NNW 04:57:59 49° W 05:02:13 10° SSW
Cosmos 2074 Rocket 3.9 04:52:41 10° NNW 04:58:54 73° W 05:05:04 10° S
MOS 1 Rocket 3.1 04:55:41 10° S 05:00:04 80° WSW 05:04:44 10° NNW
SeaSat 1 2.4 04:55:28 10° SSE 05:00:24 87° WSW 05:05:22 10° NNW
Cosmos 1023 Rocket 4.4 04:55:29 10° SSW 05:00:39 66° WNW 05:05:48 10° NNE
COSMOS 2428 2.9 04:55:26 10° NW 05:00:52 47° WSW 05:06:18 10° S
BREEZE M DEB (TANK) 2.9 04:59:34 16° WNW 05:01:47 65° NNE 05:09:26 10° ESE
ATLAS 5 CENTAUR R/B 1.6 05:00:51 18° WSW 05:03:39 51° NW 05:08:01 10° NNE
BREEZE-M DEB (TANK) 3.5 05:00:37 15° WNW 05:03:40 34° N 05:05:59 10° ENE
USA 238 DEB 4.5 04:58:25 10° NW 05:04:50 34° WSW 05:11:27 10° S
USA 238 4.5 04:58:31 10° NW 05:04:57 34° WSW 05:11:35 10° S
SKYMED 3 4.5 05:00:39 10° S 05:04:59 77° W 05:09:21 10° NNW
YAOGAN 6 4.2 05:02:49 10° NNE 05:06:07 37° E 05:09:22 10° SSE
Cosmos 2154 Rocket 4.1 05:00:07 10° N 05:06:23 85° E 05:12:40 10° S
ATLAS 3B R/B 3.4 05:02:05 10° NNW 05:09:00 60° NE 05:16:11 10° SE
BREEZE-M DEB (TANK) 4.5 05:08:11 11° SW 05:09:00 12° SSW 05:10:41 10° S
CZ-4B R/B 3.8 05:05:36 10° N 05:09:11 51° WNW 05:12:42 10° SSW
ADEOS 3.6 05:04:39 10° N 05:09:49 61° WNW 05:14:57 10° SSW
Cosmos 1602 4.1 05:07:58 10° NNW 05:11:42 43° W 05:15:23 10° SSW
USA 267 4.4 05:11:31 10° NE 05:17:01 30° N 05:22:33 10° WNW
H-2A R/B 2.9 05:13:54 10° SSW 05:17:29 27° W 05:21:03 10° NW
Cosmos 1151 Rocket 3.5 05:15:09 10° SW 05:19:08 36° WNW 05:23:08 10° N
Cosmos 2219 3.5 05:15:23 10° SSW 05:21:02 75° ESE 05:26:41 10° NNE
NOSS 0 Rocket 4.0 05:18:47 10° NW 05:24:48 55° WSW 05:30:49 10° S
Cosmos 1763 Rocket 4.4 05:20:22 10° NNW 05:25:30 53° ENE 05:30:31 10° SE
Cosmos 2184 Rocket 4.3 05:19:43 10° NNW 05:25:45 47° W 05:31:47 10° SSW
Meteor 2-12 Rocket 4.4 05:19:58 10° NNW 05:26:09 77° W 05:32:17 10° S
Cosmos 1633 Rocket 3.9 05:25:12 10° NNW 05:28:57 28° W 05:32:41 10° SSW
SKYMED 2 3.9 05:24:55 10° S 05:29:02 42° W 05:33:11 10° NNW
CZ-2C R/B 4.1 05:29:49 10° S 05:31:03 11° SSE 05:32:18 10° SE
Cosmos 1242 Rocket 2.4 05:30:49 10° SSW 05:34:15 68° WNW 05:37:44 10° N
H-2A R/B 2.8 05:30:30 10° N 05:34:22 62° WNW 05:38:11 10° SSW
ISS -3.3 05:34:12 10° WNW 05:37:26 45° SW 05:40:40 10° SE
Cosmos 468 Rocket 4.3 05:32:43 10° NNW 05:37:56 72° ENE 05:43:03 10° SSE
Milstar 3 Cent rocket 4.1 05:37:21 10° SSW 05:38:17 10° S 05:39:13 10° S
Cosmos 1812 2.8 05:35:40 10° SSW 05:39:26 56° W 05:43:13 10° N
ALOS 3.9 05:38:03 10° NNW 05:40:41 15° WNW 05:43:19 10° W
CZ-2C R/B 3.3 05:35:32 10° SSE 05:41:06 66° ENE 05:46:39 10° N
CENTAUR R/B 4.1 05:37:32 10° WNW 05:44:17 27° WSW 05:51:19 10° SSW
